Regional Weather Roundup
Issued by NWS

Home | Current Version | Previous Version | Text Only | Print | Product List | Glossary Off
Versions: 1 2 3 4 5 6 7 8 9 10 11 12 13 14 15 16 17 18 19 20 21 22 23 24 25 26 27

000
ASUS45 KTFX 010610
RWRMT
MONTANA REGIONAL WEATHER ROUNDUP
NATIONAL WEATHER SERVICE GREAT FALLS MT
1200 AM MDT SUN MAY 01 2016

NOTE: "FAIR" INDICATES FEW OR NO CLOUDS BELOW 12000 FEET WITH NO
SIGNIFICANT WEATHER AND/OR OBSTRUCTIONS TO VISIBILITY.

MTZ001>007-043-010700-
WEST OF THE DIVIDE

CITY           SKY/WX    TMP DP  RH WIND       PRES   REMARKS
KALISPELL      MOCLDY    49  35  58 N9        30.28S
MISSOULA       CLOUDY    48  42  80 CALM      30.29S
BUTTE          CLOUDY    42  29  59 VRB5      30.30R
MULLAN PASS    CLEAR     38  30  73 VRB3      30.29S
ANACONDA         N/A     41  34  75 N7        30.30S
DEER LODGE       N/A     45  34  65 N6        30.32R
EUREKA           N/A     45  34  65 CALM      30.31R
HAMILTON         N/A     48  39  71 N5        30.27R
LIBBY            N/A     46  37  71 SE3       30.29S
PLAINS           N/A     42  36  79 CALM      30.26S
THOMPSON FALLS   N/A     39  35  85 CALM      30.30R
$$

MTZ008-052>055-010700-
SOUTHWEST MONTANA

CITY           SKY/WX    TMP DP  RH WIND       PRES   REMARKS
BOZEMAN        CLOUDY    41  30  65 W7        30.29S
DILLON         CLOUDY    40  30  67 NE8       30.25S
ENNIS          CLOUDY    39  32  75 N12G20    30.31S WCI  32
THREE FORKS      N/A     41  28  60 CALM      30.26S
TWIN BRIDGES     N/A     42  29  60 N13       30.20S
$$

MTZ009-010-012-014-046-048-049-054-010700-
EAST SLOPES AND CENTRAL MONTANA

CITY           SKY/WX    TMP DP  RH WIND       PRES   REMARKS
CUT BANK       PTCLDY    37  33  85 N5        30.34S
GREAT FALLS    PTCLDY    41  33  73 SE7       30.33S
HELENA         CLOUDY    43  36  76 W7        30.31R
CHOTEAU          N/A     41  39  93 N6        30.34S
CONRAD           N/A     35  35 100 N3        30.32F
$$

MTZ011-013-016-021-045-047-050-051-010700-
NORTH CENTRAL MONTANA

CITY           SKY/WX    TMP DP  RH WIND       PRES   REMARKS
HAVRE          CLEAR     41  35  79 SW5       30.33S
LEWISTOWN      CLOUDY    43  36  76 SE3       30.34S
N BAR RANCH    MOCLDY    37  34  87 W6        30.36S
CHINOOK          N/A     39  36  87 CALM      30.33S
$$

MTZ017>020-022>027-061-062-010700-
NORTHEAST MONTANA

CITY           SKY/WX    TMP DP  RH WIND       PRES   REMARKS
GLASGOW        CLEAR     43  30  60 E6        30.32R
JORDAN           N/A     37  34  89 CALM      30.32R
SIDNEY         CLEAR     39  30  70 NW6       30.32R
WOLF POINT     CLEAR     41  32  70 CALM      30.33R
PLENTYWOOD       N/A     45  25  45 E6        30.33R
POPLAR           N/A     43  30  61 N7        30.33S
SCOBEY           N/A     40  21  46 CALM      30.29S
$$

MTZ028>42-056>058-010700-
SOUTHCENTRAL AND SOUTHEAST MONTANA

CITY           SKY/WX    TMP DP  RH WIND       PRES   REMARKS
BAKER          CLEAR     37  28  70 CALM      30.31R
BILLINGS       MOCLDY    42  34  73 NW7       30.31S
LIVINGSTON     CLOUDY    42  34  73 E8        30.31S
MILES CITY     CLOUDY    45  35  68 N8        30.30S
EKALAKA          N/A     37  25  62 E1        30.25R
FORSYTH          N/A     45  34  65 CALM      30.30R
LAUREL           N/A     44  30  58 CALM      30.27R
ROUNDUP          N/A     45  31  58 CALM      30.21S
$$

REGIONAL REPORTS...DAKOTAS

CITY           SKY/WX    TMP DP  RH WIND       PRES   REMARKS
WILLISTON      CLEAR     40  30  67 N12       30.32R
MINOT          CLEAR     41  27  57 NW8       30.31R
DICKINSON      CLEAR     34  26  72 W5        30.27S
BEACH            N/A     32  30  93 CALM      30.34R
CROSBY           N/A     37  27  65 E5        30.36S
WATFORD CITY     N/A     32  30  93 CALM      30.32R
BISMARCK       CLEAR     40  32  73 N6        30.28R
GRAND FORKS    CLEAR     47  28  47 NE9       30.26R
FARGO          CLEAR     46  27  47 NE8       30.22R
BUFFALO SD       N/A     41  27  57 N8        30.22R
RAPID CITY     CLOUDY    41  32  70 N10       30.24R
$$

REGIONAL REPORTS...WYOMING/IDAHO/WASHINGTON

CITY           SKY/WX    TMP DP  RH WIND       PRES   REMARKS
GILLETTE       CLEAR     30  28  92 NW6       30.27S WCI  24
SHERIDAN       CLOUDY    42  36  79 CALM      30.30S
BUFFALO WY       N/A    N/A N/A N/A MISG      30.30R
CODY           CLOUDY    39  30  70 N6        30.29S
YELLOWSTONE LA   N/A     31  22  69 VRB3      30.29R
IDAHO FALLS    CLOUDY    45  36  70 W6        30.13R
SALMON         CLOUDY    45  39  81 W3        30.22S
BOISE          PTCLDY    49  36  61 S3        30.09R
SPOKANE        CLEAR     51  43  74 CALM      30.26S
$$

REGIONAL REPORTS...ALBERTA

CITY           SKY/WX    TMP DP  RH WIND       PRES   REMARKS
EDMONTON       CLEAR     48  32  53 S6        30.22S
CALGARY        PTCLDY    46  30  53 VRB2      30.30S
LETHBRIDGE     CLEAR     41  36  81 SW7       30.32S
MEDICINE HAT   CLEAR     43  37  81 S2        30.32S
WATERTON GATE    N/A     41  36  81 SW3         N/A
CARDSTON         N/A     48  36  61 SW7         N/A
MILK RIVER       N/A     36  34  93 W1          N/A
ONEFOUR          N/A     43  34  70 NE7         N/A
$$

REGIONAL REPORTS...SASKATCHEWAN

CITY           SKY/WX    TMP DP  RH WIND       PRES   REMARKS
SWIFT CURRENT  CLOUDY    46  27  46 S8        30.31S
REGINA         CLEAR     41  23  48 SE10      30.33S
SASKATOON      CLEAR     46  27  46 S10       30.30R
CYPRESS HILLS    N/A     41  28  60 N2          N/A
VAL MARIE        N/A     34  28  80 NE3         N/A
ROCKGLEN         N/A     45  25  45 S2          N/A
$$




USA.gov is the U.S. government's official web portal to all federal, state and local government web resources and services.